sat.trackr.live / text

‹ back to catalog

STARLINK-3173

NORAD 51111 · 2022-005H

PAYLOAD ACTIVE UNKNOWN

§ Identity

Operator
Country
US
Launch date
2022-01-19
Launch site
AFETR
Launch vehicle
Mass (kg)
RCS (m²)

Purposes: comms

External: N2YO · Heavens-Above · Gunter

§ Orbital elements

Epoch: 2026-09-20T03:49:51.918816Z

Period
93.79 min
Inclination
53.1598°
Eccentricity
0.0001275
Mean motion
15.35396224 rev/d
Perigee alt
458.9 km
Apogee alt
460.6 km
Semi-major
6,837.9 km
B*
-2.6451e-6
RAAN
125.6508°
Arg perigee
91.0122°
Mean anomaly
269.1027°
Rev number
25,837

§ Raw data

STARLINK-31731 51111U 22005H   26263.15962869 -.00000473  00000+0 -26451-5 0  99912 51111  53.1598 125.6508 0001275  91.0122 269.1027 15.35396224258371

JSON: /api/v1/satellites/51111 · /tle

For live sub-satellite position, see the globe view (requires WebGL).

§ Visibility from observer

Set your observer location to see the next 7 days of passes ≥ 10°. The values pass through the URL so the page stays shareable.

No JS? Fill the form by hand. The geolocation button needs JavaScript.